Wind_Speed
27 28 28 28 29 28 29 30 32 33 35 36 35 34 34 34 35 35 35 35 35 35 35 35 34 35 36 35 35 35 34 33 33 32 32 33 33 33 33 33 32 33 32 32
28 28 27 29 30 30 30 31 32 33 35 36 36 35 34 35 35 35 35 36 36 36 36 35 34 34 35 35 35 35 34 33 33 33 33 33 33 33 34 34 34 34 33 33
29 28 28 29 30 30 31 31 31 33 34 34 35 33 33 33 35 35 35 36 36 36 36 36 36 35 35 35 35 35 35 34 33 33 33 33 34 35 35 35 35 34 34 34
30 29 29 29 30 30 31 31 32 32 33 34 34 34 31 32 33 34 35 35 35 36 36 36 36 35 34 35 35 35 35 35 35 35 35 35 35 36 35 35 35 35 35 35
30 30 29 29 29 31 31 31 31 32 32 33 31 33 31 31 32 33 34 34 34 35 36 35 35 35 35 34 35 35 35 35 36 36 36 36 36 36 36 35 35 35 35 36
31 30 30 30 30 31 31 31 31 32 32 33 29 32 31 31 31 32 33 33 34 34 35 36 36 36 36 36 36 36 36 36 37 37 37 37 37 37 37 36 36 36 37 37
31 31 31 31 31 31 31 30 31 32 32 33 30 31 30 28 29 30 31 32 33 34 35 36 37 37 37 37 37 37 37 37 37 37 37 38 38 38 38 38 37 37 37 38
31 31 31 31 31 31 31 31 31 33 32 32 31 31 29 27 28 29 30 31 32 34 35 36 37 37 37 38 38 38 38 37 38 38 38 38 39 39 38 38 38 37 38 38
33 32 31 31 32 31 31 31 31 33 34 33 32 32 30 28 29 30 31 32 32 33 35 36 36 37 38 39 39 39 39 39 39 40 39 39 39 39 39 39 38 38 38 38
34 35 33 32 32 33 32 32 32 33 35 35 34 33 32 31 31 31 32 32 33 34 34 35 36 37 37 37 39 39 39 39 40 40 40 40 40 40 40 40 40 39 39 40
35 36 35 34 33 32 33 33 34 35 36 37 37 34 33 33 32 32 33 33 33 34 34 35 37 37 37 37 38 39 40 40 40 40 40 40 41 40 41 41 41 41 41 41
35 37 37 36 36 35 35 34 34 36 37 38 39 38 35 35 35 35 35 35 35 35 35 35 37 38 38 38 39 39 40 41 41 41 41 41 41 41 41 41 42 41 41 42
35 36 38 38 38 38 37 36 36 38 40 40 41 39 37 37 37 37 37 37 37 37 37 37 38 39 39 39 40 40 41 41 41 41 41 42 42 42 42 42 42 41 42 42
38 38 38 38 38 38 39 38 39 40 42 42 41 39 38 37 37 37 38 38 38 39 39 39 40 40 40 40 40 41 41 41 41 41 42 42 42 43 43 42 42 41 41 42
39 41 40 39 39 39 40 39 40 41 42 43 42 41 39 38 39 38 39 39 40 40 41 41 41 41 41 41 41 42 41 42 42 42 42 43 43 44 44 44 43 43 43 43
40 41 42 42 41 41 42 41 41 41 42 42 42 43 40 41 41 41 41 41 41 41 41 42 43 43 43 43 43 43 43 43 43 43 43 43 44 44 44 43 44 44 44 44
40 41 42 43 42 43 44 43 42 42 42 42 43 42 42 43 44 43 43 43 43 43 43 43 43 44 44 44 44 44 44 44 44 44 44 44 44 44 44 44 44 45 45 45
41 41 43 44 44 46 43 43 43 43 43 43 44 43 43 44 44 45 45 45 45 45 45 45 44 44 45 45 45 46 46 46 46 45 45 45 45 45 45 45 46 46 47 47
41 41 42 44 45 47 44 43 43 43 43 43 44 44 44 44 45 46 46 46 46 45 45 46 45 45 46 46 46 47 48 48 47 47 47 47 47 47 47 47 47 47 47 48
41 42 43 44 45 46 43 43 43 44 45 44 44 45 45 46 47 46 46 46 46 45 45 46 46 46 46 47 47 48 48 48 49 49 49 48 48 48 48 48 49 48 48 48
41 42 42 43 45 45 43 43 43 44 45 44 45 45 45 46 47 47 46 46 46 46 46 46 46 46 47 47 48 48 49 49 50 50 50 49 49 49 49 49 49 49 49 49
41 41 41 42 43 43 42 43 43 44 44 44 45 45 45 45 45 45 45 45 45 45 45 45 46 46 47 48 48 48 49 49 49 50 50 50 50 50 50 50 49 49 49 49
40 40 41 42 41 41 41 41 42 42 42 42 43 44 43 44 44 44 44 44 44 44 45 46 46 46 46 47 47 48 48 48 48 49 49 49 50 51 50 50 50 49 49 50
38 39 40 40 40 40 41 41 42 42 43 43 43 43 43 43 43 43 42 42 42 42 43 44 45 45 46 46 47 48 48 48 49 49 49 49 50 50 50 50 50 49 49 50
36 36 38 39 39 40 40 41 41 41 41 42 42 41 41 41 41 41 41 41 41 42 42 43 44 45 45 45 46 47 47 48 48 48 48 48 49 49 50 50 50 50 50 51
35 36 36 37 38 40 39 40 41 41 41 41 41 40 40 41 41 41 42 42 42 42 43 43 43 44 45 45 46 46 47 48 49 49 49 49 50 50 50 50 50 51 51 51
Wind_Direction
269 268 266 264 264 263 263 263 262 260 260 260 259 257 257 258 258 257 257 256 256 256 255 255 254 252 251 251 253 253 254 254 256 257 259 258 260 261 263 264 264 263 264 265
270 270 269 266 264 263 262 262 263 262 261 262 260 259 258 258 258 258 257 256 256 256 255 255 253 252 251 251 252 251 254 255 256 258 258 258 260 261 261 262 263 264 264 265
271 272 271 267 265 264 263 263 263 264 263 263 263 260 259 259 258 257 257 257 257 256 255 254 253 253 253 253 252 252 254 256 257 258 257 258 259 261 262 262 262 263 264 264
272 272 271 268 265 264 264 263 264 264 264 264 264 263 258 260 259 258 258 257 257 257 256 255 255 255 254 254 253 254 255 256 258 259 258 259 260 261 262 263 263 263 264 265
271 270 269 268 266 265 266 265 265 265 265 265 265 267 262 261 260 259 259 258 258 258 257 256 256 256 255 254 254 255 255 256 258 259 258 259 261 261 261 262 263 264 265 265
270 269 268 268 268 266 266 265 265 265 265 265 266 268 266 265 264 262 259 258 258 259 258 256 256 256 255 255 255 256 257 258 259 259 259 260 262 262 260 261 262 263 264 266
269 268 268 268 267 266 265 265 266 265 264 266 266 266 267 268 266 265 263 260 260 260 259 258 257 257 256 255 255 257 258 259 260 260 261 262 263 263 262 262 262 264 264 266
271 269 267 267 267 266 264 264 264 266 267 268 267 266 266 266 265 265 265 263 262 261 260 260 259 258 257 255 255 256 258 260 260 261 262 263 263 262 263 262 263 264 265 266
272 270 268 266 265 265 264 263 263 265 266 268 268 267 266 265 264 264 264 265 263 263 262 260 259 259 258 258 256 256 258 260 261 261 262 263 263 263 263 263 264 264 264 266
270 270 269 267 265 263 264 262 261 263 264 267 269 270 270 267 267 267 266 266 265 265 263 261 260 260 259 258 257 257 258 260 262 262 262 263 263 263 263 264 264 264 264 265
271 270 269 267 265 265 263 261 261 262 262 265 269 270 270 270 269 269 268 267 266 264 264 263 261 262 261 259 258 257 258 259 260 262 262 262 262 262 263 263 264 265 265 266
271 269 269 268 266 264 263 261 261 262 262 264 266 269 270 271 269 268 268 267 265 263 263 264 263 263 263 261 260 259 258 259 260 260 261 262 263 263 263 263 263 264 265 266
272 270 269 268 267 266 264 262 262 263 262 263 266 269 270 270 270 270 269 268 265 263 263 263 264 264 263 262 261 260 259 259 260 260 261 261 262 263 264 264 264 265 266 267
271 270 269 270 270 268 266 264 264 264 264 264 266 268 267 269 269 269 268 267 264 265 265 264 264 265 264 263 261 260 259 259 260 260 261 262 262 263 264 265 265 267 268 267
271 270 269 268 268 267 266 265 264 264 265 266 266 266 267 268 268 268 267 266 266 267 266 265 264 264 265 264 262 261 261 260 260 261 261 262 263 263 264 265 265 266 267 268
271 270 269 268 267 266 266 265 264 264 265 266 267 266 267 268 268 268 267 267 268 269 268 266 265 265 265 264 263 261 261 261 261 262 262 263 264 263 264 265 265 265 266 267
270 270 269 268 267 266 265 267 267 266 266 267 268 269 268 267 267 268 268 268 268 269 268 266 265 264 264 264 262 260 260 260 261 261 262 263 264 265 264 265 266 266 266 267
270 270 269 269 268 267 270 269 268 267 267 268 268 269 269 269 269 269 268 269 269 268 267 266 265 264 263 263 261 260 259 259 260 261 262 264 265 266 266 266 266 267 267 267
270 269 268 268 269 270 269 270 271 271 269 269 270 270 270 270 270 269 269 269 269 269 267 266 265 264 263 261 260 259 260 260 261 262 263 264 265 265 266 266 267 267 268 268
269 268 268 268 269 271 272 272 272 272 272 271 271 271 270 270 270 270 269 269 269 268 267 266 265 265 264 262 260 260 261 261 262 263 264 264 265 265 266 266 267 268 268 269
270 270 269 269 270 271 273 272 273 273 275 274 274 273 272 271 271 270 270 270 269 268 267 267 266 265 264 263 262 261 262 262 263 263 263 264 265 266 267 267 267 267 268 268
271 271 269 270 270 273 274 273 273 275 276 275 274 274 273 272 270 269 270 270 270 269 267 266 266 265 264 264 263 262 262 262 263 263 262 263 264 265 266 266 267 267 267 268
273 272 272 271 272 273 272 272 273 274 276 276 275 274 273 272 271 270 270 271 271 269 268 268 267 267 266 265 264 263 262 263 263 263 263 263 264 265 266 266 266 267 267 268
274 273 271 270 271 272 272 272 273 274 275 276 276 274 273 273 271 270 270 270 269 269 268 268 268 268 267 266 265 264 264 265 265 265 265 265 266 266 266 265 266 267 268 268
275 275 273 272 273 273 272 272 272 273 274 275 275 274 273 272 271 270 270 271 270 270 269 269 269 268 267 266 265 265 265 266 266 266 266 266 267 268 267 267 267 268 269 269
274 275 276 275 273 272 271 271 271 271 272 274 275 274 273 272 271 271 271 272 271 271 271 271 270 269 268 268 267 266 266 266 267 267 267 267 268 268 268 268 269 269 269 270
Height
5680 5681 5681 5682 5683 5684 5684 5684 5686 5687 5687 5688 5690 5692 5694 5695 5696 5698 5699 5701 5702 5704 5706 5707 5709 5710 5712 5714 5716 5718 5720 5722 5723 5724 5726 5727 5728 5729 5730 5730 5731 5732 5732 5732
5674 5675 5675 5675 5675 5676 5676 5677 5678 5679 5679 5680 5681 5683 5685 5687 5688 5689 5691 5692 5694 5695 5697 5699 5700 5702 5704 5706 5708 5710 5712 5713 5715 5716 5718 5719 5720 5721 5722 5722 5723 5723 5724 5724
5666 5668 5668 5667 5667 5668 5669 5670 5670 5671 5671 5671 5672 5674 5677 5679 5679 5681 5683 5684 5685 5687 5688 5690 5692 5694 5696 5698 5700 5702 5704 5705 5707 5708 5709 5710 5712 5713 5713 5714 5715 5715 5716 5716
5659 5660 5660 5659 5660 5660 5661 5662 5662 5662 5662 5663 5664 5664 5670 5670 5671 5672 5674 5675 5677 5678 5680 5682 5684 5686 5688 5690 5691 5693 5695 5697 5698 5700 5701 5702 5703 5704 5705 5706 5706 5707 5707 5707
5651 5652 5652 5652 5653 5653 5653 5654 5654 5654 5654 5655 5657 5657 5661 5662 5663 5665 5666 5667 5669 5670 5672 5673 5675 5677 5679 5681 5683 5685 5687 5688 5690 5691 5692 5693 5694 5695 5696 5697 5697 5698 5698 5698
5644 5644 5644 5645 5645 5645 5645 5646 5646 5646 5646 5647 5651 5650 5651 5654 5655 5656 5658 5659 5661 5662 5663 5665 5666 5668 5670 5672 5674 5676 5678 5679 5681 5682 5683 5684 5685 5686 5687 5688 5689 5689 5690 5690
5636 5636 5637 5637 5637 5638 5638 5638 5638 5638 5638 5639 5643 5642 5644 5647 5647 5648 5649 5651 5652 5653 5654 5656 5657 5659 5661 5663 5665 5667 5669 5670 5672 5673 5674 5675 5676 5677 5678 5678 5679 5680 5680 5681
5627 5628 5629 5629 5629 5629 5630 5631 5632 5631 5631 5632 5634 5634 5638 5639 5639 5640 5641 5642 5643 5645 5646 5647 5648 5650 5651 5653 5655 5657 5659 5661 5662 5664 5665 5666 5667 5667 5668 5669 5670 5670 5671 5671
5618 5619 5621 5621 5621 5622 5622 5623 5624 5623 5623 5624 5625 5627 5630 5631 5631 5632 5633 5634 5635 5636 5637 5638 5639 5640 5642 5643 5645 5647 5649 5651 5653 5654 5655 5656 5657 5658 5658 5659 5660 5661 5661 5661
5609 5610 5612 5612 5613 5613 5615 5615 5616 5615 5615 5615 5617 5619 5621 5622 5623 5624 5625 5625 5626 5627 5628 5629 5630 5631 5632 5633 5635 5637 5639 5641 5643 5644 5645 5646 5647 5648 5648 5649 5650 5651 5651 5651
5601 5601 5602 5603 5605 5605 5606 5607 5607 5607 5608 5608 5608 5613 5613 5613 5614 5615 5616 5616 5617 5618 5619 5620 5620 5621 5622 5623 5625 5627 5629 5631 5632 5633 5634 5635 5636 5637 5638 5639 5640 5640 5641 5641
5592 5592 5592 5594 5595 5596 5597 5598 5599 5599 5600 5599 5599 5604 5605 5605 5605 5605 5606 5607 5608 5608 5609 5610 5611 5612 5612 5613 5614 5616 5618 5620 5621 5623 5624 5625 5626 5627 5628 5628 5629 5629 5630 5631
5583 5583 5583 5584 5587 5587 5587 5588 5589 5589 5589 5590 5590 5596 5595 5595 5595 5596 5597 5597 5598 5598 5599 5600 5601 5602 5602 5603 5604 5605 5607 5609 5610 5611 5613 5614 5615 5616 5616 5617 5618 5618 5619 5619
5573 5573 5575 5576 5575 5575 5576 5578 5579 5578 5578 5579 5582 5584 5586 5585 5585 5586 5586 5586 5587 5588 5589 5589 5590 5591 5591 5592 5593 5594 5596 5597 5599 5600 5601 5602 5604 5604 5605 5606 5606 5607 5608 5608
5563 5563 5564 5565 5565 5565 5565 5567 5568 5568 5569 5569 5572 5573 5575 5575 5575 5575 5575 5575 5575 5576 5577 5578 5578 5579 5580 5581 5582 5583 5584 5586 5587 5588 5590 5590 5591 5592 5593 5594 5594 5595 5596 5596
5552 5552 5552 5553 5555 5554 5554 5556 5557 5558 5558 5559 5559 5561 5564 5563 5563 5563 5563 5563 5564 5564 5565 5565 5566 5567 5568 5569 5570 5571 5572 5574 5575 5576 5577 5578 5579 5580 5581 5581 5582 5583 5583 5584
5542 5542 5541 5541 5543 5541 5542 5547 5547 5547 5548 5548 5548 5551 5551 5551 5551 5551 5552 5552 5552 5552 5552 5553 5554 5555 5556 5556 5557 5559 5560 5562 5563 5564 5565 5566 5567 5568 5568 5569 5569 5570 5570 5571
5531 5530 5529 5529 5530 5527 5536 5536 5535 5535 5536 5537 5537 5538 5538 5539 5539 5539 5539 5539 5539 5539 5540 5540 5541 5541 5542 5543 5544 5545 5547 5549 5550 5551 5552 5553 5554 5555 5556 5556 5557 5557 5557 5557
5520 5519 5518 5517 5515 5516 5522 5524 5524 5523 5524 5525 5525 5526 5526 5526 5526 5526 5527 5527 5527 5526 5526 5527 5527 5528 5529 5530 5531 5532 5534 5535 5536 5538 5539 5540 5541 5542 5542 5542 5543 5543 5543 5544
5509 5508 5507 5506 5504 5504 5511 5512 5511 5511 5510 5513 5512 5512 5513 5512 5513 5514 5514 5514 5514 5514 5513 5513 5514 5514 5515 5516 5517 5518 5520 5521 5522 5523 5525 5526 5526 5527 5528 5528 5528 5529 5529 5529
5498 5496 5495 5494 5492 5493 5498 5499 5499 5499 5500 5500 5499 5499 5499 5499 5499 5500 5499 5500 5500 5500 5500 5500 5501 5501 5502 5502 5504 5505 5506 5507 5508 5509 5510 5511 5512 5512 5513 5513 5514 5514 5514 5515
5485 5484 5484 5483 5482 5486 5487 5486 5487 5487 5486 5486 5486 5485 5485 5485 5485 5486 5486 5486 5485 5486 5486 5487 5487 5488 5488 5489 5490 5491 5491 5492 5492 5493 5494 5495 5496 5497 5497 5498 5499 5499 5499 5500
5473 5474 5473 5473 5475 5475 5474 5474 5474 5473 5473 5473 5473 5472 5472 5472 5472 5473 5473 5473 5473 5473 5473 5473 5474 5474 5475 5475 5476 5476 5477 5477 5478 5478 5479 5480 5481 5482 5482 5483 5484 5484 5484 5485
5462 5462 5461 5461 5462 5463 5463 5462 5461 5461 5461 5460 5460 5460 5459 5459 5459 5459 5460 5460 5460 5460 5460 5460 5460 5461 5461 5461 5461 5462 5462 5463 5464 5464 5465 5466 5466 5467 5467 5468 5468 5469 5469 5469
5451 5450 5449 5449 5451 5451 5451 5450 5450 5449 5448 5448 5447 5447 5447 5447 5447 5447 5447 5447 5447 5447 5447 5447 5447 5447 5447 5447 5447 5448 5448 5449 5449 5450 5450 5451 5451 5451 5452 5452 5453 5453 5453 5453
5441 5440 5439 5439 5440 5438 5439 5438 5437 5437 5436 5435 5435 5435 5434 5434 5434 5434 5434 5434 5434 5434 5434 5434 5434 5434 5433 5433 5434 5434 5434 5434 5435 5435 5435 5436 5436 5436 5437 5437 5437 5437 5437 5437